Flag for Canada Weather past 2 weeks in Halifax, Nova Scotia, Canada

Now
77 °F

Sunny.


Feels Like: 78 °F
Forecast: 50 / 72 °F
Wind: 12 mph from Southwest

Location: Halifax International Airport

Current Time: May 25, 2015 at 12:50:04 PM

Latest Report: May 25, 2015 at 12:00 PM


Visibility: 15 mi

Pressure: 30.14 "Hg

Humidity: 39%

Dew point: 50 °F

Location of HalifaxLocation

Historic Weather in Halifax — Graph

°F

Halifax temperature yesterday

Maximum temperature yesterday: 63 °F (at 3:00 PM)
Minimum temperature yesterday: 37 °F (at 4:00 AM)
Average temperature yesterday: 50 °F

Past Weeks' High & Low Weather Summary

 TemperatureHumidityPressure
High77 °F (May 10, 4:00 PM)100% (May 11, 3:00 AM)30.33 "Hg (May 11, 3:00 AM)
Low37 °F (May 14, 5:00 AM)22% (May 15, 3:00 PM)29.48 "Hg (May 20, 4:51 PM)
Average52 °F68%30.01 "Hg
* Reported May 10 11:00 AM — May 25 11:00 AM, Halifax, Weather by CustomWeather, © 2015

Note: Actual official high and low records may vary slightly from our data, if they occured in-between our weather recording intervals... More about our weather records

Advertising

Halifax weather history for previous 24 hours

 ConditionsComfort  
Time TempWeatherWind HumidityBarometerVisibility
11:00 AM
Mon, May 25
72 °FPassing clouds.8 mph47%30.16 "Hg15 mi
10:00 AM68 °FPassing clouds.12 mph49%30.15 "Hg15 mi
9:00 AM64 °FSunny.12 mph52%30.16 "Hg15 mi
8:00 AM61 °FPassing clouds.5 mph59%30.14 "Hg15 mi
7:00 AM52 °FPassing clouds.6 mph72%30.15 "Hg15 mi
6:00 AM48 °FPassing clouds.7 mph82%30.13 "Hg15 mi
5:00 AM50 °FPassing clouds.8 mph76%30.11 "Hg15 mi
4:00 AM54 °FPassing clouds.12 mph67%30.09 "Hg15 mi
3:00 AM50 °FPassing clouds.13 mph76%30.10 "Hg15 mi
2:00 AM50 °FPassing clouds.9 mph71%30.10 "Hg15 mi
1:00 AM52 °FClear.12 mph67%30.11 "Hg15 mi
12:00 AM52 °FClear.13 mph67%30.09 "Hg15 mi
11:00 PM
Sun, May 24
52 °FClear.16 mph67%30.08 "Hg15 mi
10:00 PM54 °FPassing clouds.15 mph63%30.07 "Hg15 mi
9:00 PM54 °FScattered clouds.15 mph67%30.05 "Hg15 mi
8:00 PM57 °FPartly sunny.12 mph59%30.04 "Hg15 mi
7:00 PM61 °FScattered clouds.13 mph52%30.03 "Hg15 mi
6:00 PM61 °FPartly sunny.17 mph55%30.02 "Hg15 mi
5:00 PM63 °FPartly sunny.16 mph52%30.01 "Hg15 mi
4:00 PM63 °FPartly sunny.16 mph52%30.02 "Hg15 mi
3:00 PM63 °FScattered clouds.16 mph49%30.03 "Hg15 mi
2:00 PM61 °FScattered clouds.15 mph52%30.04 "Hg15 mi
1:00 PM57 °FBroken clouds.13 mph63%30.06 "Hg15 mi
12:00 PM52 °FOvercast.14 mph67%30.09 "Hg15 mi
Weather by CustomWeather, © 2015

See weather overviewHow to use our weather pages